This is the latest recevied weather packets stored in our database for station/object JH4GLG-13. If no packets are shown the sender has not sent any weather packets the latest 10 day(s).
| Time | Temp. | Humidity | Pressure | Rain* | Wind** | Luminosity | Snow |
|---|---|---|---|---|---|---|---|
| 1777139687 | 14.44° C | 84% | 1017.6 hPa | 0 mm | - | - | - |
| 1777138786 | 14.44° C | 84% | 1017.6 hPa | 0 mm | - | - | - |
| 1777137886 | 15° C | 83% | 1017.7 hPa | 0 mm | - | - | - |
| 1777136986 | 14.44° C | 84% | 1017.6 hPa | 0 mm | - | - | - |
| 1777136086 | 15° C | 83% | 1017.7 hPa | 0 mm | - | - | - |
| 1777135185 | - | - | 1017.8 hPa | 0 mm | - | - | - |
| 1777134286 | 15° C | 82% | 1017.7 hPa | 0 mm | - | - | - |
| 1777133385 | 15.56° C | 80% | 1017.8 hPa | 0 mm | - | - | - |
| 1777132487 | 15.56° C | 81% | 1017.9 hPa | 0 mm | - | - | - |
| 1777131585 | 15.56° C | 80% | 1018.2 hPa | 0 mm | - | - | - |
| 1777130686 | 15.56° C | 81% | 1018.3 hPa | 0 mm | - | - | - |
| 1777129784 | 15.56° C | 80% | 1018.4 hPa | 0 mm | - | - | - |
| 1777128886 | 15.56° C | 80% | 1018.6 hPa | 0 mm | - | - | - |
| 1777127984 | 16.11° C | 78% | 1018.6 hPa | 0 mm | - | - | - |
| 1777127089 | 16.11° C | 78% | 1018.7 hPa | 0 mm | - | - | - |
| 1777127086 | 16.11° C | 78% | 1018.8 hPa | 0 mm | - | - | - |
| 1777126184 | 16.11° C | 78% | 1018.7 hPa | 0 mm | - | - | - |
| 1777125285 | 16.11° C | 77% | 1018.7 hPa | 0 mm | - | - | - |
| 1777124384 | 16.67° C | 76% | 1018.6 hPa | 0 mm | - | - | - |
| 1777123485 | 16.67° C | 76% | 1018.6 hPa | 0 mm | - | - | - |
| 1777122584 | 16.67° C | 76% | 1018.7 hPa | 0 mm | - | - | - |
| 1777121684 | 17.22° C | 75% | 1018.9 hPa | 0 mm | - | - | - |
| 1777120783 | - | - | 639.3 hPa | 0 mm | - | - | - |
| 1777119888 | 17.22° C | 74% | 1018.9 hPa | 0 mm | - | - | - |
| 1777119884 | - | - | 639.3 hPa | 0 mm | - | - | - |
* Rain latest hour (hover to see other rain measurements)
** Current wind speed in m/s (hover to see current wind gust speed)